N11573 KILN-KILN

Flight info

Callsign N11573
Flight time 0h 4m
Altitude VFR
Route
Aircraft C152/L-DOV/C

Departure

Time 2026-05-09 00:53
Airport Wilmington Airpark (KILN)

Arrival

Time 2026-05-09 00:58
Airport Wilmington Airpark (KILN)
Time Latitude Longitude Altitude Speed Heading
2026-05-09 00:52 39.44214 -83.78557 1069 ft 11 kts 307°
2026-05-09 00:52 39.44223 -83.78678 1069 ft 18 kts 225°
2026-05-09 00:52 39.44001 -83.78901 1065 ft 63 kts 217°
2026-05-09 00:52 39.43617 -83.79273 1149 ft 71 kts 218°
2026-05-09 00:53 39.43197 -83.79675 1249 ft 75 kts 217°
2026-05-09 00:53 39.42782 -83.80058 1410 ft 72 kts 216°
2026-05-09 00:53 39.42404 -83.80469 1570 ft 67 kts 226°
2026-05-09 00:53 39.42045 -83.80826 1727 ft 68 kts 217°
2026-05-09 00:54 39.41624 -83.81028 1861 ft 70 kts 175°
2026-05-09 00:54 39.41224 -83.80653 1893 ft 73 kts 136°
2026-05-09 00:54 39.40874 -83.80171 1946 ft 74 kts 132°
2026-05-09 00:54 39.40649 -83.79617 1999 ft 73 kts 77°
2026-05-09 00:55 39.40994 -83.79145 2028 ft 76 kts 38°
2026-05-09 00:55 39.41432 -83.78700 1999 ft 83 kts 38°
2026-05-09 00:55 39.41897 -83.78238 1997 ft 83 kts 33°
2026-05-09 00:55 39.42355 -83.77768 1993 ft 83 kts 38°
2026-05-09 00:56 39.42820 -83.77338 2008 ft 83 kts 33°
2026-05-09 00:56 39.43301 -83.76931 2013 ft 83 kts 33°
2026-05-09 00:56 39.43764 -83.76538 2061 ft 77 kts 32°
2026-05-09 00:56 39.44242 -83.76281 2014 ft 77 kts
2026-05-09 00:57 39.44747 -83.76464 1907 ft 78 kts 323°
2026-05-09 00:57 39.45104 -83.76993 1715 ft 80 kts 297°
2026-05-09 00:57 39.45181 -83.77689 1477 ft 79 kts 239°
2026-05-09 00:57 39.44782 -83.78126 1274 ft 69 kts 221°
2026-05-09 00:58 39.44416 -83.78494 1142 ft 69 kts 217°
2026-05-09 00:58 39.44089 -83.78816 1067 ft 44 kts 218°
2026-05-09 00:58 39.43808 -83.79092 1064 ft 68 kts 217°
2026-05-09 00:58 39.43392 -83.79483 1155 ft 75 kts 216°
2026-05-09 00:59 39.42983 -83.79871 1305 ft 73 kts 218°
2026-05-09 00:59 39.42589 -83.80264 1477 ft 69 kts 218°
2026-05-09 00:59 39.42200 -83.80634 1626 ft 68 kts 216°
2026-05-09 00:59 39.41806 -83.80797 1805 ft 64 kts 153°
2026-05-09 01:00 39.41443 -83.80377 1854 ft 78 kts 128°
2026-05-09 01:00 39.41104 -83.79796 1895 ft 82 kts 128°
2026-05-09 01:00 39.40973 -83.79142 1909 ft 80 kts 63°
2026-05-09 01:00 39.41406 -83.78669 1870 ft 85 kts 34°
2026-05-09 01:01 39.41886 -83.78204 1881 ft 85 kts 34°
2026-05-09 01:01 39.42371 -83.77752 1887 ft 86 kts 33°
2026-05-09 01:01 39.42867 -83.77336 1918 ft 84 kts 29°
2026-05-09 01:01 39.43380 -83.76982 1929 ft 80 kts 29°
2026-05-09 01:02 39.43837 -83.76607 1929 ft 73 kts 31°
2026-05-09 01:02 39.44329 -83.76487 1852 ft 77 kts 332°
2026-05-09 01:02 39.44667 -83.76969 1621 ft 77 kts 285°
2026-05-09 01:02 39.44685 -83.77648 1425 ft 75 kts 259°
2026-05-09 01:03 39.44529 -83.78241 1254 ft 65 kts 233°
2026-05-09 01:03 39.44248 -83.78651 1104 ft 54 kts 212°
2026-05-09 01:03 39.44016 -83.78878 1065 ft 40 kts 220°
2026-05-09 01:03 39.43684 -83.79205 1079 ft 74 kts 216°
2026-05-09 01:04 39.43258 -83.79607 1211 ft 73 kts 218°
2026-05-09 01:04 39.42808 -83.79994 1279 ft 81 kts 217°
2026-05-09 01:04 39.42355 -83.80424 1386 ft 80 kts 221°
2026-05-09 01:04 39.41945 -83.80846 1565 ft 71 kts 204°
2026-05-09 01:05 39.41505 -83.80682 1708 ft 72 kts 142°
2026-05-09 01:05 39.41136 -83.80206 1847 ft 71 kts 134°
2026-05-09 01:05 39.40923 -83.79162 2131 ft 73 kts 40°
2026-05-09 01:06 39.41368 -83.78675 2086 ft 89 kts 40°
2026-05-09 01:06 39.41843 -83.78192 2167 ft 84 kts 34°
2026-05-09 01:06 39.42334 -83.77712 2121 ft 93 kts 36°
2026-05-09 01:06 39.42856 -83.77232 2127 ft 89 kts 34°
2026-05-09 01:07 39.43356 -83.76780 2093 ft 87 kts 33°
2026-05-09 01:07 39.43831 -83.76357 2101 ft 80 kts 32°
2026-05-09 01:07 39.44361 -83.76080 1982 ft 84 kts 358°
2026-05-09 01:07 39.44849 -83.76416 1821 ft 79 kts 313°
2026-05-09 01:08 39.45052 -83.77069 1601 ft 83 kts 266°
2026-05-09 01:08 39.44904 -83.77702 1428 ft 70 kts 234°
2026-05-09 01:08 39.44628 -83.78212 1255 ft 71 kts 229°
2026-05-09 01:08 39.44277 -83.78630 1093 ft 63 kts 216°
2026-05-09 01:09 39.44025 -83.78883 1065 ft 30 kts 225°
2026-05-09 01:09 39.43888 -83.78977 1064 ft 16 kts 145°
2026-05-09 01:09 39.43821 -83.78882 1065 ft 14 kts 129°
2026-05-09 01:09 39.43792 -83.78770 1066 ft 13 kts 79°
2026-05-09 01:10 39.43797 -83.78658 1066 ft 3 kts 104°